Tracking 19250 objects as of 23-Sep-2018
HD Live streaming from Space Station
objects crossing your sky now

OBJECT K

Track OBJECT K now!
10-day predictions


NORAD ID: 43189
Int'l Code: 2018-014K
Perigee: 577.3 km
Apogee: 592.3 km
Inclination: 97.7 °
Period: 96.2 minutes
Semi major axis: 6955 km
RCS: Unknown
Launch date: February 1, 2018
Source: (TBD)
Launch site: VOSTOCHNY COSMODROME (VOSTO)
aabbcc
Your satellite tracking list
Your tracking list is empty




NASA's NSSDC Master Catalog

Two Line Element Set (TLE):
1 43189U 18014K   18265.31020861 +.00000127 +00000-0 +16299-4 0  9993
2 43189 097.7173 172.4946 0010784 178.4324 181.6933 14.96505851033396
Source of the keplerian elements: AMSAT